Terminal Aerodrome Forecast
Issued by NWS

Home | Current Version | Previous Version | Graphics & Text | Print | Product List | Glossary On
Versions: 1 2 3 4 5 6 7 8 9 10 11 12 13 14 15 16 17 18
000
FTUS42 KMHX 281406 AAA
TAFPGV
TAF AMD
KPGV 281406Z 2814/2912 02006KT P6SM BKN012
     FM281530 03008KT P6SM VCSH BKN035
     FM282100 07008KT P6SM BKN050
     FM290800 VRB03KT 5SM BR BKN008
      AMD LTD TO CLD VIS AND WIND=

USA.gov is the U.S. government's official web portal to all federal, state and local government web resources and services.